Flag for U.S.A. Weather past 2 weeks in Glendale, Arizona, U.S.A.

Now
74 °F

Passing clouds.


Feels Like: 77 °F
Forecast: 65 / 85 °F
Wind: 5 mph from East

Location: Phoenix-Deer Valley Municipal Airport

Current Time: May 5, 2015 at 10:32:10 PM

Latest Report: May 5, 2015 at 9:53 PM


Visibility: 10 mi

Pressure: 29.77 "Hg

Humidity: 41%

Dew point: 49 °F

Location of GlendaleLocation

Historic Weather in Glendale — Graph

°F

Glendale temperature yesterday

Maximum temperature yesterday: 83 °F (at 2:53 PM)
Minimum temperature yesterday: 62 °F (at 3:53 AM)
Average temperature yesterday: 71 °F

Past Weeks' High & Low Weather Summary

 TemperatureHumidityPressure
High97 °F (May 1, 1:53 PM)94% (Apr 26, 5:02 AM)29.96 "Hg (Apr 26, 5:02 AM)
Low52 °F (Apr 26, 5:02 AM)4% (May 1, 2:53 PM)29.63 "Hg (May 2, 6:53 PM)
Average73 °F32%29.78 "Hg
* Reported Apr 20 8:53 PM — May 5 8:53 PM, Glendale, Weather by CustomWeather, © 2015

Note: Actual official high and low records may vary slightly from our data, if they occured in-between our weather recording intervals... More about our weather records

Advertising

Glendale weather history for previous 24 hours

 ConditionsComfort  
Time TempWeatherWind HumidityBarometerVisibility
8:53 PM
Tue, May 5
76 °FClear.No wind37%29.76 "Hg10 mi
7:53 PM78 °FClear.5 mph33%29.75 "Hg10 mi
6:53 PM79 °FSunny.14 mph31%29.73 "Hg10 mi
5:53 PM80 °FSunny.7 mph28%29.73 "Hg10 mi
4:53 PM80 °FSunny.10 mph28%29.74 "Hg10 mi
3:53 PM80 °FSunny.9 mph28%29.75 "Hg10 mi
2:53 PM78 °FSunny.6 mph32%29.77 "Hg10 mi
1:53 PM79 °FPassing clouds.8 mph32%29.80 "Hg10 mi
12:53 PM77 °FPassing clouds.7 mph35%29.82 "Hg10 mi
11:53 AM72 °FMostly cloudy.7 mph48%29.84 "Hg10 mi
10:53 AM72 °FOvercast.8 mph49%29.85 "Hg10 mi
9:53 AM70 °FOvercast.5 mph51%29.85 "Hg10 mi
8:53 AM69 °FSunny.6 mph55%29.85 "Hg10 mi
7:53 AM66 °FPartly sunny.No wind63%29.85 "Hg10 mi
6:53 AM66 °FOvercast.5 mph61%29.83 "Hg10 mi
5:53 AM65 °FOvercast.3 mph66%29.82 "Hg10 mi
4:53 AM65 °FOvercast.No wind66%29.81 "Hg10 mi
3:53 AM66 °FOvercast.5 mph61%29.80 "Hg10 mi
2:53 AM66 °FOvercast.No wind61%29.81 "Hg10 mi
1:53 AM66 °FOvercast.6 mph56%29.82 "Hg10 mi
12:53 AM67 °FOvercast.7 mph55%29.82 "Hg10 mi
11:53 PM
Mon, May 4
67 °FPartly cloudy.6 mph53%29.82 "Hg10 mi
10:53 PM67 °FOvercast.13 mph55%29.82 "Hg10 mi
Weather by CustomWeather, © 2015

See weather overviewHow to use our weather pages